contact:dominique.lefevre@mio.osupytheas.fr, maurice.libes@osupytheas.fr, didier.mallarino@osupytheas.fr
Project:EMSO http://www.emso-fr.org/EMSO-France
Depth: 2436.0 m
Title:EMSO Ligure Ouest : Data MII capteur AQUADOPP
Date,Latitude,Longitude,X_East,Y_North,Z_Up,Amplitude_X,Amplitude_Y,Amplitude_Z,Batterie,SoundSpeed,Heading,Pitch,Roll,Pressure,TIS,Speed,Direction
, degrees North, degrees East, m.s-1, m.s-1,m.s-1, 1, 1, 1, Volt, m.s-1, degree, degree, degree, dbar, degree_C, m.s-1, degree
2020-05-01T00:04:03,42.805,6.029,-0.027,0.038,-0.035,105.0,112.0,104.0,13.4,1505.3,326.0,-0.8,1.8,2470.42,13.32,0.046,324.6
2020-05-01T00:07:03,42.805,6.029,0.005,0.023,-0.004,105.0,110.0,102.0,13.3,1505.3,322.8,-0.7,1.8,2470.439,13.32,0.023,12.3
2020-05-01T00:10:03,42.805,6.029,-0.005,0.023,-0.016,105.0,111.0,103.0,13.3,1505.3,324.3,-0.7,1.8,2470.467,13.33,0.023,347.7
2020-05-01T00:13:03,42.805,6.029,-0.007,0.011,-0.022,105.0,112.0,103.0,13.4,1505.3,326.6,-0.7,1.8,2470.441,13.33,0.013,327.5
2020-05-01T00:16:03,42.805,6.029,-0.02,0.013,0.001,105.0,112.0,103.0,13.4,1505.3,323.0,-0.7,1.8,2470.406,13.33,0.023,303.0
2020-05-01T00:19:03,42.805,6.029,-0.002,0.007,-0.035,107.0,111.0,103.0,13.3,1505.4,327.3,-0.7,1.8,2470.462,13.34,0.007,344.1
2020-05-01T00:22:03,42.805,6.029,-0.006,0.013,-0.032,107.0,113.0,102.0,13.3,1505.4,324.6,-0.7,1.8,2470.411,13.34,0.014,335.2
2020-05-01T00:28:03,42.805,6.029,-0.029,0.019,-0.013,105.0,112.0,104.0,13.4,1505.3,328.7,-0.7,1.8,2470.452,13.32,0.034,303.2
2020-05-01T00:31:03,42.805,6.029,-0.03,0.016,-0.009,106.0,110.0,103.0,13.4,1505.3,325.3,-0.7,1.8,2470.435,13.33,0.034,298.1
2020-05-01T00:34:03,42.805,6.029,-0.032,0.017,-0.039,106.0,112.0,102.0,13.4,1505.3,327.4,-0.7,1.9,2470.389,13.33,0.036,298.0
2020-05-01T00:37:03,42.805,6.029,-0.009,0.016,0.007,107.0,112.0,103.0,13.4,1505.3,327.4,-0.6,1.8,2470.469,13.33,0.018,330.6
2020-05-01T00:43:03,42.805,6.029,-0.029,0.011,-0.016,105.0,112.0,103.0,13.4,1505.3,325.0,-0.7,1.8,2470.452,13.32,0.031,290.8
2020-05-01T00:46:03,42.805,6.029,-0.029,0.002,-0.009,106.0,112.0,104.0,13.3,1505.3,324.7,-0.7,1.9,2470.458,13.33,0.029,273.9
2020-05-01T00:49:03,42.805,6.029,-0.026,-0.002,-0.035,106.0,111.0,103.0,13.4,1505.3,326.5,-0.7,1.8,2470.454,13.33,0.026,265.6
2020-05-01T00:52:03,42.805,6.029,-0.021,0.01,-0.02,105.0,112.0,103.0,13.4,1505.3,323.7,-0.7,1.8,2470.404,13.33,0.023,295.5
2020-05-01T00:55:03,42.805,6.029,-0.032,0.015,-0.032,105.0,112.0,103.0,13.3,1505.4,326.9,-0.7,1.8,2470.426,13.34,0.035,295.1
2020-05-01T00:58:03,42.805,6.029,-0.002,0.007,-0.032,108.0,113.0,103.0,13.4,1505.4,325.0,-0.7,1.9,2470.44,13.34,0.007,344.1
2020-05-01T01:04:03,42.805,6.029,-0.054,0.01,-0.009,109.0,112.0,104.0,13.4,1505.3,323.8,-0.8,1.8,2470.477,13.32,0.054,280.5
2020-05-01T01:07:03,42.805,6.029,-0.014,0.006,-0.015,106.0,112.0,102.0,13.3,1505.3,327.0,-0.8,1.8,2470.455,13.33,0.015,293.2
2020-05-01T01:10:03,42.805,6.029,-0.007,0.031,-0.04,106.0,113.0,102.0,13.3,1505.3,326.8,-0.7,1.9,2470.465,13.33,0.031,347.3
2020-05-01T01:13:03,42.805,6.029,0.007,0.007,0.024,106.0,112.0,104.0,13.4,1505.3,326.3,-0.7,1.8,2470.413,13.33,0.009,45.0
2020-05-01T01:16:03,42.805,6.029,-0.018,0.033,0.019,107.0,113.0,103.0,13.3,1505.4,326.1,-0.7,1.8,2470.438,13.34,0.037,331.4
2020-05-01T01:19:03,42.805,6.029,-0.032,-0.017,-0.043,106.0,113.0,103.0,13.4,1505.4,325.2,-0.7,1.8,2470.43,13.34,0.036,242.0
2020-05-01T01:22:03,42.805,6.029,-0.032,-0.003,-0.041,108.0,113.0,103.0,13.3,1505.4,323.7,-0.7,1.8,2470.414,13.34,0.032,264.6
2020-05-01T01:25:03,42.805,6.029,-0.025,0.002,-0.023,107.0,112.0,103.0,13.4,1505.4,327.0,-0.7,1.9,2470.448,13.34,0.025,274.6
2020-05-01T01:28:03,42.805,6.029,-0.031,0.007,-0.049,107.0,112.0,104.0,13.4,1505.4,325.7,-0.7,1.8,2470.453,13.34,0.031,282.7
2020-05-01T01:31:03,42.805,6.029,-0.027,0.033,-0.013,106.0,113.0,103.0,13.4,1505.4,327.6,-0.7,1.8,2470.468,13.34,0.042,320.7
2020-05-01T01:34:03,42.805,6.029,-0.026,0.012,-0.031,107.0,113.0,103.0,13.4,1505.4,326.8,-0.7,1.9,2470.409,13.34,0.028,294.8
2020-05-01T01:37:03,42.805,6.029,-0.014,0.012,-0.043,106.0,113.0,103.0,13.4,1505.4,326.5,-0.7,1.8,2470.422,13.34,0.018,310.6
2020-05-01T01:40:03,42.805,6.029,-0.03,-0.002,-0.032,105.0,114.0,104.0,13.3,1505.4,328.6,-0.7,1.8,2470.436,13.34,0.03,266.2
2020-05-01T01:43:03,42.805,6.029,-0.017,0.031,-0.047,108.0,112.0,102.0,13.3,1505.4,328.0,-0.7,1.8,2470.399,13.34,0.035,331.3
2020-05-01T01:46:03,42.805,6.029,-0.022,0.018,-0.033,107.0,114.0,105.0,13.4,1505.4,325.5,-0.7,1.8,2470.43,13.34,0.028,309.3
2020-05-01T01:49:03,42.805,6.029,-0.037,0.023,-0.052,106.0,113.0,103.0,13.4,1505.4,326.9,-0.7,1.9,2470.408,13.34,0.043,301.9
2020-05-01T01:52:03,42.805,6.029,-0.031,0.005,-0.038,107.0,113.0,104.0,13.4,1505.4,327.7,-0.7,1.8,2470.381,13.34,0.031,279.2
2020-05-01T01:55:03,42.805,6.029,-0.015,0.013,-0.004,108.0,113.0,103.0,13.3,1505.4,326.7,-0.7,1.8,2470.437,13.34,0.019,310.9
2020-05-01T01:58:03,42.805,6.029,-0.023,0.009,-0.06,107.0,113.0,104.0,13.4,1505.4,327.4,-0.7,1.8,2470.408,13.34,0.024,291.4
2020-05-01T02:04:03,42.805,6.029,-0.019,0.025,-0.002,107.0,113.0,104.0,13.4,1505.3,328.1,-0.8,1.8,2470.481,13.32,0.031,322.8
2020-05-01T02:07:03,42.805,6.029,-0.026,0.028,-0.014,106.0,114.0,103.0,13.4,1505.3,328.5,-0.7,1.8,2470.4,13.33,0.038,317.1
2020-05-01T02:10:03,42.805,6.029,-0.018,0.007,-0.041,106.0,115.0,103.0,13.4,1505.3,327.7,-0.7,1.8,2470.464,13.33,0.019,291.2
2020-05-01T02:13:03,42.805,6.029,-0.024,0.026,-0.03,106.0,113.0,103.0,13.4,1505.3,323.0,-0.7,1.8,2470.457,13.33,0.035,317.3
2020-05-01T02:16:03,42.805,6.029,-0.002,0.024,0.014,106.0,113.0,104.0,13.4,1505.3,324.1,-0.7,1.9,2470.454,13.33,0.024,355.2
2020-05-01T02:19:03,42.805,6.029,-0.002,0.028,-0.041,107.0,114.0,104.0,13.4,1505.4,323.8,-0.7,1.8,2470.456,13.34,0.028,355.9
2020-05-01T02:22:03,42.805,6.029,-0.021,0.021,0.0,106.0,111.0,104.0,13.4,1505.4,324.4,-0.7,1.8,2470.418,13.34,0.029,315.0
2020-05-01T02:25:03,42.805,6.029,-0.017,0.018,0.005,107.0,114.0,104.0,13.3,1505.4,325.2,-0.7,1.8,2470.42,13.34,0.024,316.6
2020-05-01T02:28:03,42.805,6.029,-0.028,0.023,-0.002,107.0,114.0,103.0,13.4,1505.4,326.3,-0.7,1.8,2470.443,13.34,0.036,309.4
2020-05-01T02:31:03,42.805,6.029,-0.024,0.02,0.008,107.0,114.0,103.0,13.3,1505.4,327.8,-0.7,1.8,2470.453,13.34,0.031,309.8
2020-05-01T02:34:03,42.805,6.029,-0.021,0.013,-0.012,107.0,113.0,105.0,13.4,1505.4,324.6,-0.7,1.8,2470.405,13.34,0.024,301.8
2020-05-01T02:37:03,42.805,6.029,-0.052,0.018,-0.039,107.0,113.0,104.0,13.3,1505.4,323.9,-0.7,1.9,2470.421,13.34,0.055,289.1
2020-05-01T02:40:03,42.805,6.029,-0.019,0.02,0.008,107.0,113.0,103.0,13.4,1505.4,327.0,-0.7,1.8,2470.408,13.34,0.027,316.5
2020-05-01T02:43:03,42.805,6.029,-0.027,0.013,0.017,108.0,112.0,104.0,13.4,1505.4,325.6,-0.7,1.8,2470.454,13.34,0.029,295.7
2020-05-01T02:46:03,42.805,6.029,-0.019,0.0,-0.006,107.0,112.0,103.0,13.4,1505.4,325.1,-0.7,1.8,2470.387,13.34,0.019,270.0
2020-05-01T02:49:03,42.805,6.029,-0.006,0.011,0.003,108.0,112.0,105.0,13.4,1505.4,327.8,-0.7,1.8,2470.424,13.34,0.012,331.4
2020-05-01T02:52:03,42.805,6.029,-0.025,0.011,-0.032,108.0,112.0,103.0,13.4,1505.4,325.7,-0.7,1.8,2470.412,13.34,0.027,293.7
2020-05-01T02:55:03,42.805,6.029,-0.051,0.03,-0.041,106.0,113.0,104.0,13.3,1505.4,325.2,-0.7,1.8,2470.423,13.34,0.059,300.5
2020-05-01T02:58:03,42.805,6.029,-0.019,0.013,-0.022,108.0,111.0,105.0,13.4,1505.4,323.5,-0.7,1.8,2470.409,13.34,0.023,304.4
2020-05-01T03:04:03,42.805,6.029,-0.032,0.007,-0.038,108.0,111.0,104.0,13.4,1505.3,327.3,-0.7,1.8,2470.446,13.32,0.032,282.3
2020-05-01T03:07:03,42.805,6.029,-0.013,0.009,-0.004,105.0,112.0,104.0,13.4,1505.3,325.7,-0.7,1.8,2470.465,13.32,0.015,304.7
2020-05-01T03:10:03,42.805,6.029,-0.005,0.022,-0.006,107.0,111.0,105.0,13.4,1505.3,327.7,-0.7,1.8,2470.443,13.33,0.022,347.2
2020-05-01T03:13:03,42.805,6.029,-0.018,0.024,-0.016,106.0,112.0,104.0,13.4,1505.3,322.8,-0.7,1.8,2470.435,13.33,0.03,323.1
2020-05-01T03:16:03,42.805,6.029,-0.039,0.019,-0.029,108.0,112.0,103.0,13.4,1505.3,327.4,-0.7,1.9,2470.429,13.33,0.043,296.0
2020-05-01T03:19:03,42.805,6.029,-0.031,0.023,-0.028,107.0,113.0,104.0,13.4,1505.3,324.0,-0.7,1.8,2470.415,13.33,0.038,306.6
2020-05-01T03:22:03,42.805,6.029,-0.018,0.02,-0.022,105.0,112.0,103.0,13.4,1505.3,326.5,-0.7,1.9,2470.412,13.33,0.026,318.0
2020-05-01T03:25:03,42.805,6.029,-0.017,0.008,-0.05,106.0,112.0,104.0,13.4,1505.3,326.4,-0.7,1.8,2470.408,13.33,0.018,295.2
2020-05-01T03:28:03,42.805,6.029,-0.057,0.012,0.016,106.0,113.0,103.0,13.4,1505.3,326.3,-0.7,1.8,2470.446,13.33,0.058,281.9
2020-05-01T03:31:03,42.805,6.029,-0.047,0.015,-0.031,107.0,113.0,103.0,13.4,1505.3,324.9,-0.7,1.8,2470.386,13.33,0.049,287.7
2020-05-01T03:34:03,42.805,6.029,-0.008,0.032,0.002,107.0,112.0,103.0,13.3,1505.3,325.8,-0.7,1.8,2470.41,13.33,0.032,346.0
2020-05-01T03:37:03,42.805,6.029,-0.062,0.016,-0.009,108.0,114.0,102.0,13.3,1505.3,324.8,-0.7,1.8,2470.442,13.33,0.064,284.5
2020-05-01T03:40:03,42.805,6.029,-0.032,0.025,-0.008,107.0,115.0,104.0,13.3,1505.3,324.5,-0.7,1.8,2470.4,13.33,0.04,308.0
2020-05-01T03:43:03,42.805,6.029,-0.036,0.041,0.008,107.0,112.0,104.0,13.4,1505.3,327.5,-0.7,1.8,2470.423,13.33,0.054,318.7
2020-05-01T03:46:03,42.805,6.029,-0.031,0.029,-0.017,106.0,114.0,104.0,13.4,1505.3,327.7,-0.7,1.8,2470.422,13.33,0.042,313.1
2020-05-01T03:49:03,42.805,6.029,-0.065,0.022,-0.023,105.0,113.0,103.0,13.3,1505.3,326.2,-0.7,1.8,2470.414,13.33,0.068,288.7
2020-05-01T03:52:03,42.805,6.029,-0.042,0.042,-0.035,107.0,113.0,103.0,13.4,1505.3,327.5,-0.7,1.9,2470.379,13.33,0.059,315.0
2020-05-01T03:55:03,42.805,6.029,-0.049,0.032,-0.034,106.0,112.0,103.0,13.4,1505.3,326.3,-0.7,1.8,2470.404,13.33,0.058,303.2
2020-05-01T03:58:03,42.805,6.029,-0.037,0.01,-0.039,108.0,114.0,104.0,13.4,1505.3,328.2,-0.7,1.8,2470.423,13.33,0.038,285.1
2020-05-01T04:04:03,42.805,6.029,-0.036,0.016,-0.025,105.0,113.0,104.0,13.4,1505.3,325.5,-0.8,1.8,2470.418,13.31,0.039,294.0
2020-05-01T04:07:02,42.805,6.029,-0.047,0.009,-0.014,106.0,112.0,103.0,13.3,1505.3,324.4,-0.7,1.8,2470.409,13.32,0.047,280.8
2020-05-01T04:10:03,42.805,6.029,-0.043,0.014,-0.011,105.0,112.0,103.0,13.4,1505.3,327.3,-0.7,1.8,2470.421,13.32,0.045,288.0
2020-05-01T04:13:03,42.805,6.029,-0.058,0.014,-0.042,106.0,111.0,102.0,13.3,1505.3,322.8,-0.7,1.8,2470.402,13.33,0.059,283.6
2020-05-01T04:16:03,42.805,6.029,-0.022,0.015,-0.049,106.0,113.0,104.0,13.3,1505.3,326.4,-0.7,1.8,2470.425,13.33,0.026,304.3
2020-05-01T04:19:03,42.805,6.029,-0.039,0.029,-0.013,106.0,112.0,103.0,13.4,1505.3,324.3,-0.7,1.8,2470.391,13.33,0.048,306.6
2020-05-01T04:22:03,42.805,6.029,-0.055,0.015,-0.051,106.0,113.0,103.0,13.4,1505.3,324.9,-0.7,1.8,2470.408,13.33,0.057,285.3
2020-05-01T04:25:03,42.805,6.029,-0.053,0.013,-0.057,106.0,113.0,103.0,13.4,1505.3,325.0,-0.7,1.9,2470.428,13.33,0.054,283.8
2020-05-01T04:28:03,42.805,6.029,-0.037,0.028,-0.03,106.0,113.0,103.0,13.4,1505.3,328.3,-0.8,1.8,2470.367,13.33,0.046,307.1
2020-05-01T04:31:03,42.805,6.029,-0.05,0.01,-0.036,106.0,112.0,102.0,13.4,1505.3,325.7,-0.7,1.8,2470.401,13.33,0.05,281.3
2020-05-01T04:34:03,42.805,6.029,-0.037,0.03,-0.015,105.0,112.0,102.0,13.4,1505.3,326.5,-0.7,1.8,2470.39,13.33,0.047,309.0
2020-05-01T04:37:03,42.805,6.029,-0.065,0.006,-0.014,107.0,112.0,104.0,13.4,1505.3,324.2,-0.7,1.8,2470.355,13.33,0.065,275.3
2020-05-01T04:40:03,42.805,6.029,-0.062,0.012,-0.074,107.0,113.0,103.0,13.3,1505.3,325.6,-0.7,1.8,2470.399,13.33,0.063,281.0
2020-05-01T04:43:03,42.805,6.029,-0.035,0.01,-0.041,107.0,113.0,103.0,13.4,1505.3,326.8,-0.7,1.8,2470.414,13.33,0.036,285.9
2020-05-01T04:46:03,42.805,6.029,-0.027,0.018,-0.015,106.0,112.0,104.0,13.4,1505.3,327.9,-0.7,1.8,2470.387,13.33,0.032,303.7
2020-05-01T04:49:03,42.805,6.029,-0.043,0.029,-0.042,105.0,114.0,103.0,13.4,1505.3,323.4,-0.7,1.9,2470.439,13.33,0.051,304.0
2020-05-01T04:52:03,42.805,6.029,-0.052,0.037,-0.05,107.0,112.0,103.0,13.4,1505.3,325.4,-0.7,1.8,2470.38,13.33,0.063,305.4
2020-05-01T04:55:03,42.805,6.029,-0.021,0.03,-0.024,106.0,113.0,103.0,13.3,1505.3,326.3,-0.7,1.9,2470.337,13.33,0.036,325.0
2020-05-01T04:58:03,42.805,6.029,-0.024,0.035,-0.016,106.0,113.0,104.0,13.4,1505.3,323.6,-0.7,1.8,2470.346,13.33,0.042,325.6
2020-05-01T05:04:03,42.805,6.029,-0.027,0.014,-0.025,107.0,112.0,102.0,13.4,1505.3,326.3,-0.8,1.8,2470.391,13.31,0.03,297.4
2020-05-01T05:07:03,42.805,6.029,-0.057,0.031,-0.027,106.0,111.0,102.0,13.4,1505.3,324.1,-0.7,1.8,2470.388,13.32,0.064,298.5
2020-05-01T05:10:03,42.805,6.029,-0.036,0.018,0.0,105.0,112.0,103.0,13.4,1505.3,326.4,-0.7,1.8,2470.418,13.32,0.04,296.6
2020-05-01T05:13:03,42.805,6.029,-0.06,0.019,-0.04,107.0,113.0,103.0,13.4,1505.3,326.5,-0.7,1.9,2470.416,13.33,0.062,287.6
2020-05-01T05:16:03,42.805,6.029,-0.065,0.024,-0.03,106.0,113.0,102.0,13.4,1505.3,327.9,-0.7,1.9,2470.361,13.33,0.069,290.3
2020-05-01T05:19:03,42.805,6.029,-0.051,0.028,-0.038,105.0,112.0,103.0,13.3,1505.3,328.5,-0.7,1.8,2470.395,13.33,0.058,298.8
2020-05-01T05:22:03,42.805,6.029,-0.025,0.025,-0.031,107.0,112.0,104.0,13.4,1505.3,326.4,-0.7,1.8,2470.377,13.33,0.035,315.0
2020-05-01T05:25:03,42.805,6.029,-0.053,0.015,-0.015,105.0,112.0,104.0,13.4,1505.3,325.9,-0.7,1.8,2470.369,13.33,0.055,285.8
2020-05-01T05:28:03,42.805,6.029,-0.003,0.011,-0.003,106.0,112.0,103.0,13.3,1505.3,323.5,-0.7,1.8,2470.388,13.33,0.011,344.7
2020-05-01T05:31:03,42.805,6.029,-0.029,0.045,-0.007,105.0,114.0,103.0,13.4,1505.3,326.7,-0.7,1.8,2470.421,13.33,0.053,327.2
2020-05-01T05:34:03,42.805,6.029,-0.053,0.039,-0.017,105.0,113.0,104.0,13.4,1505.3,322.8,-0.7,1.9,2470.362,13.33,0.065,306.3
2020-05-01T05:37:03,42.805,6.029,-0.048,0.036,-0.016,106.0,114.0,103.0,13.4,1505.3,327.0,-0.7,1.8,2470.373,13.33,0.06,306.9
2020-05-01T05:40:03,42.805,6.029,-0.017,0.033,-0.034,106.0,114.0,104.0,13.4,1505.3,324.4,-0.7,1.8,2470.367,13.33,0.037,332.7
2020-05-01T05:43:03,42.805,6.029,-0.039,0.004,-0.014,107.0,114.0,103.0,13.3,1505.3,326.1,-0.8,1.8,2470.4,13.33,0.039,275.9
2020-05-01T05:46:03,42.805,6.029,-0.036,0.017,-0.023,106.0,114.0,103.0,13.4,1505.3,327.4,-0.7,1.8,2470.409,13.33,0.039,295.3
2020-05-01T05:49:03,42.805,6.029,-0.033,0.026,-0.022,106.0,114.0,104.0,13.3,1505.3,325.7,-0.7,1.8,2470.361,13.33,0.042,308.2
2020-05-01T05:52:03,42.805,6.029,-0.018,0.023,-0.021,106.0,113.0,103.0,13.4,1505.3,326.9,-0.7,1.8,2470.362,13.33,0.029,322.0
2020-05-01T05:55:03,42.805,6.029,-0.029,0.04,-0.006,106.0,114.0,104.0,13.4,1505.3,324.7,-0.7,1.9,2470.367,13.33,0.049,324.1
2020-05-01T05:58:03,42.805,6.029,-0.03,0.034,0.0,106.0,114.0,103.0,13.4,1505.3,325.6,-0.7,1.8,2470.343,13.33,0.045,318.6
2020-05-01T06:04:03,42.805,6.029,-0.03,0.03,-0.029,105.0,115.0,104.0,13.3,1505.3,323.3,-0.7,1.8,2470.396,13.31,0.042,315.0
2020-05-01T06:07:03,42.805,6.029,-0.045,0.036,-0.016,106.0,114.0,105.0,13.3,1505.3,324.6,-0.7,1.8,2470.388,13.32,0.057,308.7
2020-05-01T06:10:03,42.805,6.029,-0.032,0.038,-0.017,106.0,115.0,103.0,13.3,1505.3,322.9,-0.7,1.8,2470.362,13.32,0.049,319.9
2020-05-01T06:13:03,42.805,6.029,-0.022,0.043,-0.008,107.0,115.0,102.0,13.4,1505.3,325.9,-0.7,1.8,2470.368,13.33,0.048,332.9
2020-05-01T06:16:03,42.805,6.029,-0.048,0.031,0.006,106.0,116.0,103.0,13.3,1505.3,325.1,-0.7,1.8,2470.377,13.33,0.057,302.9
2020-05-01T06:19:03,42.805,6.029,-0.049,0.043,-0.008,106.0,114.0,105.0,13.4,1505.3,327.4,-0.7,1.8,2470.344,13.33,0.065,311.3
2020-05-01T06:22:03,42.805,6.029,-0.02,0.037,-0.021,106.0,114.0,103.0,13.4,1505.3,326.5,-0.7,1.8,2470.348,13.33,0.042,331.6
2020-05-01T06:25:03,42.805,6.029,-0.017,0.021,-0.035,105.0,116.0,103.0,13.4,1505.3,322.8,-0.7,1.8,2470.36,13.33,0.027,321.0
2020-05-01T06:28:03,42.805,6.029,-0.04,0.017,-0.019,107.0,115.0,104.0,13.3,1505.3,326.0,-0.7,1.8,2470.364,13.33,0.043,293.0
2020-05-01T06:31:03,42.805,6.029,-0.014,0.018,0.003,106.0,115.0,103.0,13.4,1505.3,324.3,-0.7,1.8,2470.387,13.33,0.022,322.1
2020-05-01T06:34:03,42.805,6.029,-0.02,0.017,-0.028,105.0,114.0,103.0,13.4,1505.3,327.9,-0.7,1.8,2470.358,13.33,0.026,310.4
2020-05-01T06:37:03,42.805,6.029,-0.03,0.023,-0.021,107.0,115.0,102.0,13.3,1505.3,322.4,-0.7,1.8,2470.35,13.33,0.037,307.5
2020-05-01T06:40:03,42.805,6.029,-0.037,0.023,-0.045,107.0,114.0,103.0,13.4,1505.3,325.1,-0.7,1.8,2470.327,13.33,0.043,301.9
2020-05-01T06:43:03,42.805,6.029,-0.021,0.034,-0.014,106.0,114.0,103.0,13.3,1505.3,326.6,-0.8,1.8,2470.37,13.33,0.039,328.3
2020-05-01T06:46:03,42.805,6.029,-0.011,0.025,-0.04,106.0,115.0,103.0,13.4,1505.3,326.4,-0.7,1.9,2470.33,13.33,0.027,336.3
2020-05-01T06:49:03,42.805,6.029,-0.056,0.027,-0.022,106.0,117.0,104.0,13.4,1505.3,327.1,-0.7,1.8,2470.334,13.33,0.062,295.7
2020-05-01T06:52:03,42.805,6.029,-0.001,0.019,-0.023,105.0,114.0,103.0,13.4,1505.3,327.3,-0.7,1.9,2470.333,13.33,0.019,357.0
2020-05-01T06:55:03,42.805,6.029,-0.042,0.023,-0.023,106.0,115.0,103.0,13.4,1505.3,323.0,-0.7,1.9,2470.298,13.33,0.047,298.7
2020-05-01T06:58:03,42.805,6.029,-0.048,0.021,-0.015,106.0,115.0,104.0,13.4,1505.3,326.3,-0.7,1.8,2470.315,13.33,0.052,293.6
2020-05-01T07:04:03,42.805,6.029,-0.022,0.02,-0.019,106.0,117.0,104.0,13.3,1505.3,326.6,-0.8,1.8,2470.35,13.31,0.029,312.3
2020-05-01T07:07:03,42.805,6.029,-0.03,0.027,-0.013,108.0,115.0,104.0,13.4,1505.3,325.0,-0.7,1.8,2470.349,13.32,0.04,312.0
2020-05-01T07:10:03,42.805,6.029,-0.052,0.024,-0.017,106.0,115.0,103.0,13.4,1505.3,326.9,-0.7,1.8,2470.337,13.32,0.057,294.8
2020-05-01T07:13:03,42.805,6.029,-0.016,0.051,-0.017,107.0,117.0,103.0,13.4,1505.3,324.7,-0.7,1.8,2470.347,13.33,0.053,342.6
2020-05-01T07:16:03,42.805,6.029,-0.045,0.027,-0.035,105.0,115.0,103.0,13.4,1505.3,325.7,-0.7,1.8,2470.365,13.33,0.052,301.0
2020-05-01T07:19:03,42.805,6.029,-0.021,0.027,0.002,108.0,114.0,103.0,13.4,1505.3,325.0,-0.7,1.8,2470.318,13.33,0.034,322.1
2020-05-01T07:22:03,42.805,6.029,-0.009,0.029,0.009,105.0,114.0,104.0,13.4,1505.3,326.7,-0.7,1.8,2470.297,13.33,0.03,342.8
2020-05-01T07:25:03,42.805,6.029,-0.059,0.013,-0.041,106.0,115.0,103.0,13.4,1505.3,327.6,-0.7,1.9,2470.349,13.33,0.06,282.4
2020-05-01T07:28:03,42.805,6.029,-0.025,0.029,-0.016,105.0,114.0,103.0,13.4,1505.3,324.4,-0.7,1.8,2470.338,13.33,0.038,319.2
2020-05-01T07:31:03,42.805,6.029,-0.039,0.022,-0.014,108.0,117.0,102.0,13.4,1505.3,323.5,-0.7,1.8,2470.373,13.33,0.044,299.4
2020-05-01T07:34:03,42.805,6.029,-0.024,0.027,0.0,105.0,116.0,104.0,13.4,1505.3,324.9,-0.7,1.8,2470.327,13.33,0.036,318.4
2020-05-01T07:37:03,42.805,6.029,-0.069,0.036,-0.048,105.0,116.0,102.0,13.4,1505.3,327.9,-0.7,1.8,2470.273,13.33,0.077,297.6
2020-05-01T07:40:03,42.805,6.029,-0.055,0.025,-0.026,106.0,116.0,102.0,13.3,1505.3,324.6,-0.7,1.8,2470.316,13.33,0.06,294.4
2020-05-01T07:43:03,42.805,6.029,-0.042,0.048,-0.032,105.0,117.0,101.0,13.4,1505.3,325.6,-0.7,1.9,2470.304,13.33,0.063,318.8
2020-05-01T07:46:03,42.805,6.029,-0.03,0.038,-0.026,106.0,115.0,101.0,13.4,1505.3,324.1,-0.7,1.8,2470.292,13.33,0.048,321.7
2020-05-01T07:49:03,42.805,6.029,-0.045,0.022,-0.04,105.0,114.0,102.0,13.3,1505.3,325.3,-0.7,1.8,2470.319,13.33,0.05,296.1
2020-05-01T07:52:03,42.805,6.029,-0.023,0.017,-0.026,105.0,114.0,101.0,13.4,1505.3,325.4,-0.7,1.8,2470.3,13.33,0.028,306.5
2020-05-01T07:55:03,42.805,6.029,-0.023,0.022,-0.049,105.0,114.0,102.0,13.4,1505.3,326.5,-0.7,1.8,2470.271,13.33,0.031,313.7
2020-05-01T08:04:03,42.805,6.029,-0.037,0.03,-0.038,105.0,113.0,102.0,13.4,1505.2,326.6,-0.7,1.8,2470.404,13.3,0.047,309.0
2020-05-01T08:07:03,42.805,6.029,-0.012,0.026,-0.024,105.0,115.0,103.0,13.3,1505.3,327.7,-0.7,1.9,2470.368,13.31,0.028,335.2
2020-05-01T08:10:03,42.805,6.029,-0.045,0.04,-0.017,104.0,114.0,102.0,13.4,1505.3,324.3,-0.7,1.9,2470.35,13.32,0.06,311.6
2020-05-01T08:13:03,42.805,6.029,-0.013,0.015,-0.021,105.0,114.0,102.0,13.4,1505.3,323.3,-0.7,1.8,2470.378,13.32,0.019,319.1
2020-05-01T08:16:03,42.805,6.029,-0.05,0.009,-0.004,104.0,115.0,103.0,13.4,1505.3,323.0,-0.7,1.9,2470.339,13.33,0.05,280.2
2020-05-01T08:19:03,42.805,6.029,-0.034,0.018,-0.033,104.0,115.0,102.0,13.3,1505.3,327.9,-0.7,1.9,2470.355,13.33,0.038,297.9
2020-05-01T08:22:03,42.805,6.029,-0.022,0.031,-0.023,105.0,116.0,102.0,13.3,1505.3,327.1,-0.7,1.8,2470.322,13.33,0.038,324.6
2020-05-01T08:25:03,42.805,6.029,-0.015,0.036,-0.03,105.0,115.0,102.0,13.4,1505.3,327.6,-0.8,1.8,2470.293,13.33,0.039,337.4
2020-05-01T08:28:03,42.805,6.029,-0.02,0.033,-0.019,105.0,115.0,102.0,13.4,1505.3,327.8,-0.7,1.8,2470.284,13.33,0.038,328.8
2020-05-01T08:31:03,42.805,6.029,-0.02,0.039,-0.004,105.0,113.0,102.0,13.4,1505.3,328.0,-0.7,1.8,2470.295,13.33,0.043,332.9
2020-05-01T08:34:03,42.805,6.029,-0.034,0.008,-0.026,103.0,114.0,103.0,13.4,1505.3,324.8,-0.7,1.9,2470.273,13.33,0.034,283.2
2020-05-01T08:40:03,42.805,6.029,-0.027,0.023,-0.025,102.0,114.0,101.0,13.3,1505.3,323.5,-0.7,1.8,2470.344,13.31,0.035,310.4
2020-05-01T08:43:03,42.805,6.029,-0.029,0.043,-0.025,104.0,114.0,102.0,13.3,1505.3,323.2,-0.7,1.9,2470.374,13.32,0.051,326.0
2020-05-01T08:46:03,42.805,6.029,-0.02,0.025,-0.025,104.0,113.0,102.0,13.4,1505.3,325.3,-0.7,1.8,2470.299,13.32,0.032,321.3
2020-05-01T08:49:03,42.805,6.029,-0.037,0.032,-0.014,104.0,115.0,102.0,13.4,1505.3,324.8,-0.7,1.8,2470.337,13.33,0.048,310.9
2020-05-01T08:52:03,42.805,6.029,-0.057,0.04,-0.009,103.0,115.0,103.0,13.4,1505.3,325.4,-0.7,1.8,2470.316,13.33,0.069,305.1
2020-05-01T08:55:03,42.805,6.029,-0.034,0.027,-0.037,104.0,114.0,102.0,13.3,1505.3,324.5,-0.7,1.8,2470.308,13.33,0.043,308.5
2020-05-01T08:58:03,42.805,6.029,-0.05,0.036,-0.04,105.0,114.0,103.0,13.4,1505.3,326.8,-0.7,1.8,2470.29,13.33,0.061,305.8
2020-05-01T09:04:03,42.805,6.029,-0.034,0.021,-0.011,104.0,116.0,101.0,13.4,1505.3,326.8,-0.7,1.8,2470.343,13.31,0.039,301.7
2020-05-01T09:07:03,42.805,6.029,-0.049,0.033,-0.048,103.0,113.0,101.0,13.3,1505.3,324.0,-0.7,1.8,2470.348,13.32,0.059,304.0
2020-05-01T09:10:03,42.805,6.029,-0.026,0.05,-0.006,104.0,116.0,103.0,13.3,1505.3,325.7,-0.7,1.9,2470.337,13.32,0.056,332.5
2020-05-01T09:13:03,42.805,6.029,-0.047,0.047,0.009,104.0,114.0,103.0,13.4,1505.3,325.3,-0.7,1.8,2470.361,13.32,0.066,315.0
2020-05-01T09:16:03,42.805,6.029,-0.026,0.046,0.014,104.0,115.0,102.0,13.4,1505.3,327.6,-0.7,1.8,2470.371,13.33,0.052,330.5
2020-05-01T09:19:03,42.805,6.029,-0.021,0.025,-0.014,104.0,114.0,102.0,13.4,1505.3,323.6,-0.7,1.8,2470.295,13.33,0.032,320.0
2020-05-01T09:22:03,42.805,6.029,-0.018,0.028,-0.01,103.0,114.0,102.0,13.4,1505.3,327.3,-0.7,1.9,2470.343,13.33,0.033,327.3
2020-05-01T09:25:03,42.805,6.029,-0.041,0.033,-0.008,104.0,113.0,103.0,13.4,1505.3,325.3,-0.7,1.8,2470.326,13.33,0.052,308.8
2020-05-01T09:28:03,42.805,6.029,-0.031,0.04,0.015,105.0,114.0,101.0,13.4,1505.3,326.0,-0.7,1.8,2470.276,13.33,0.05,322.2
2020-05-01T09:31:03,42.805,6.029,-0.016,0.042,-0.001,104.0,113.0,102.0,13.4,1505.3,326.6,-0.7,1.9,2470.35,13.33,0.044,339.1
2020-05-01T09:34:03,42.805,6.029,-0.027,0.042,-0.037,107.0,113.0,103.0,13.4,1505.3,325.1,-0.7,1.8,2470.297,13.33,0.049,327.3
2020-05-01T09:37:03,42.805,6.029,-0.033,0.026,-0.01,103.0,113.0,102.0,13.4,1505.3,326.3,-0.7,1.8,2470.309,13.33,0.042,308.2
2020-05-01T09:40:03,42.805,6.029,-0.035,0.033,-0.049,106.0,112.0,103.0,13.4,1505.3,328.3,-0.7,1.8,2470.303,13.33,0.048,313.3
2020-05-01T09:43:03,42.805,6.029,-0.019,0.019,-0.009,104.0,112.0,103.0,13.4,1505.3,324.3,-0.7,1.8,2470.314,13.33,0.026,315.0
2020-05-01T09:46:03,42.805,6.029,-0.031,0.048,-0.048,105.0,115.0,101.0,13.4,1505.3,325.3,-0.7,1.8,2470.294,13.33,0.057,327.1
2020-05-01T09:49:03,42.805,6.029,-0.037,0.046,-0.012,103.0,114.0,101.0,13.3,1505.3,325.5,-0.7,1.9,2470.317,13.33,0.059,321.2
2020-05-01T09:52:03,42.805,6.029,-0.026,0.03,-0.059,104.0,113.0,102.0,13.4,1505.3,324.5,-0.7,1.8,2470.311,13.33,0.039,319.1
2020-05-01T09:55:03,42.805,6.029,-0.028,0.012,-0.019,104.0,115.0,102.0,13.4,1505.3,324.5,-0.7,1.9,2470.317,13.33,0.03,293.2
2020-05-01T09:58:03,42.805,6.029,-0.024,0.037,-0.015,104.0,113.0,102.0,13.4,1505.3,327.4,-0.7,1.8,2470.316,13.33,0.044,327.0
2020-05-01T10:04:03,42.805,6.029,-0.035,0.039,-0.019,104.0,112.0,102.0,13.4,1505.3,323.2,-0.7,1.8,2470.38,13.31,0.052,318.1
2020-05-01T10:07:03,42.805,6.029,-0.022,0.042,-0.018,104.0,114.0,101.0,13.4,1505.3,325.3,-0.7,1.8,2470.329,13.32,0.047,332.4
2020-05-01T10:10:03,42.805,6.029,-0.053,0.023,-0.05,104.0,112.0,102.0,13.4,1505.3,328.5,-0.7,1.9,2470.36,13.32,0.057,293.5